Flag for Norway Weather past 2 weeks in Mo i Rana, Norway

Now
42 °F

Quite cool.


Feels Like: 35 °F
Forecast: 35 / 42 °F
Wind: 15 mph from Southwest

Location: Nord-Solvaer


UV Index: 0 (Low)

Visibility: N/A


Pressure: 29.87 "Hg

Humidity: 93%

Dew point: 41 °F

Location of Mo i RanaLocation

Historic Weather in Mo i Rana

°F

Mo i Rana temperature yesterday

Maximum temperature yesterday: 44 °F (at 3:00 PM)
Minimum temperature yesterday: 36 °F (at 6:00 AM)
Average temperature yesterday: 40 °F

Past Weeks' High & Low Weather Summary

 TemperatureHumidityPressure
High47 °F (Apr 7, 5:00 PM)95% (Apr 5, 5:00 PM)30.16 "Hg (Apr 5, 5:00 PM)
Low34 °F (Apr 4, 7:00 AM)46% (Apr 9, 2:00 PM)28.94 "Hg (Apr 13, 6:00 AM)
Average41 °F75%29.66 "Hg
* Reported Apr 4 7:00 AM — Apr 19 7:00 AM, Mo i Rana, Weather by CustomWeather, © 2014

Note: Actual official high and low records may vary slightly from our data, if they occured in-between our weather recording intervals... More about our weather records

Advertising

Historic Weather Conditions — Data for Previous 24 hours

 ConditionsComfort  
Time TempWeatherWind HumidityBarometerVisibility
7:00 AM
Apr 19
42 °FQuite cool.16 mph93%29.85 "HgN/A
6:00 AM42 °FQuite cool.16 mph92%29.85 "HgN/A
5:00 AM41 °FQuite cool.15 mph91%29.85 "HgN/A
4:00 AM40 °FQuite cool.14 mph91%29.86 "HgN/A
3:00 AM41 °FQuite cool.16 mph90%29.86 "HgN/A
2:00 AM41 °FQuite cool.16 mph87%29.88 "HgN/A
1:00 AM42 °FQuite cool.17 mph81%29.88 "HgN/A
12:00 AM42 °FQuite cool.15 mph75%29.89 "HgN/A
10:00 PM
Apr 18
42 °FQuite cool.15 mph68%29.89 "HgN/A
9:00 PM42 °FQuite cool.14 mph72%29.90 "HgN/A
8:00 PM42 °FQuite cool.15 mph73%29.91 "HgN/A
7:00 PM42 °FQuite cool.13 mph73%29.93 "HgN/A
6:00 PM42 °FQuite cool.14 mph69%29.94 "HgN/A
5:00 PM42 °FQuite cool.13 mph68%29.94 "HgN/A
4:00 PM40 °FQuite cool.12 mph70%29.95 "HgN/A
3:00 PM44 °FQuite cool.10 mph51%29.95 "HgN/A
2:00 PM42 °FQuite cool.8 mph61%29.96 "HgN/A
1:00 PM42 °FQuite cool.7 mph56%29.94 "HgN/A
12:00 PM40 °FChilly.6 mph75%29.93 "HgN/A
11:00 AM40 °FQuite cool.7 mph69%29.92 "HgN/A
10:00 AM40 °FChilly.2 mph62%29.91 "HgN/A
9:00 AM39 °FChilly.3 mph61%29.90 "HgN/A
8:00 AM39 °FChilly.7 mph70%29.86 "HgN/A
Weather by CustomWeather, © 2014

See weather overview